Regional Weather Roundup
Issued by NWS Albany, NY

Current Version | Previous Version | Text Only | Print | Product List | Glossary Off
Versions: 1 2 3 4 5 6 7 8 9 10 11 12 13 14 15 16 17 18 19 20 21 22 23 24 25 26 27 28 29 30 31 32 33 34 35 36 37 38 39 40 41 42 43 44 45 46 47 48 49 50
000 ASUS41 KALY 212210 RWRALY NEW YORK STATE HOURLY WEATHER ROUNDUP NATIONAL WEATHER SERVICE ALBANY NY 600 PM EDT MON AUG 21 2017 NOTE: "FAIR" INDICATES FEW OR NO CLOUDS BELOW 12,000 FEET WITH NO SIGNIFICANT WEATHER AND/OR NO OBSTRUCTIONS TO VISIBILITY. NYZ032-033-038>043-046>054-057>066-NYZ062>081-082-084-212300- EAST CITY SKY/WX TMP DP RH WIND PRES REMARKS ALBANY MOSUNNY 83 66 56 S6 30.06F GLENS FALLS SUNNY 82 66 58 S8 30.04F POUGHKEEPSIE MOSUNNY 83 67 58 SW6 30.09S NEWBURGH MOSUNNY 82 72 69 SW9 30.12S MONTGOMERY SUNNY 83 71 67 SW12 30.09F WHITE PLAINS MOSUNNY 81 64 56 S7 30.12F ISLIP MOSUNNY 80 67 64 SW14G21 30.13F NEW YORK CITY MOSUNNY 85 67 54 S14 30.11S CENTRAL PARK MOSUNNY 82 67 60 CALM 30.14S $$ NYZ005>009-017-018-044>046-055-056-212300- CENTRAL CITY SKY/WX TMP DP RH WIND PRES REMARKS FULTON MOSUNNY 85 68 56 CALM 30.04F SYRACUSE MOSUNNY 84 66 54 SW10 30.04F ROME SUNNY 84 64 50 SW7 30.05F ELMIRA PTSUNNY 79 76 90 SW13 30.08R BINGHAMTON TSTM 73 66 78 S12G20 30.13S $$ NYZ026>034-041>043-087-212300- NORTH CITY SKY/WX TMP DP RH WIND PRES REMARKS WATERTOWN SUNNY 80 66 62 SW8 30.03F FORT DRUM NOT AVBL OGDENSBURG FAIR 82 66 57 SW6 30.02R MASSENA SUNNY 81 64 56 SW13 30.00S SARANAC LAKE SUNNY 77 61 57 SW9 30.08S PLATTSBURGH SUNNY 84 61 45 VRB5 29.99F $$ NYZ001>004-010>016-019>021-085-212300- WEST CITY SKY/WX TMP DP RH WIND PRES REMARKS NIAGARA FALLS SUNNY 84 66 54 S9 30.05F BUFFALO MOSUNNY 80 68 66 SW12 30.06F DUNKIRK SUNNY 82 68 62 SW7 30.07F JAMESTOWN MOSUNNY 81 63 54 W8 30.13F WELLSVILLE SUNNY 82 59 45 W9 30.15F ROCHESTER PTSUNNY 83 68 60 W7 30.05F PENN YAN SUNNY 85 64 49 W5 30.08S $$ KEY WCI = WIND CHILL INDEX VSB = VISIBILITY HX = HEAT INDEX $$

USA.gov is the U.S. government's official web portal to all federal, state and local government web resources and services.